Location: Hysolar-Haus
(48.7436°N, 9.0965°E)
Time: 20:49:11
(UTC+00:00)

ISS - Visible Passes

Search period start: 02 December 2023 00:00
Search period end: 12 December 2023 00:00
Orbit: 416 x 417 km, 51.6° (Epoch: 02 December)

Date Brightness Start Highest point End Pass type
(mag) Time Alt. Az. Time Alt. Az. Time Alt. Az.
02 Dec -3.8 16:28:39 10° WNW 16:32:01 84° NNE 16:35:23 10° ESE visible
02 Dec -1.6 18:05:44 10° W 18:08:23 23° SW 18:08:23 23° SW visible
03 Dec -2.3 17:17:03 10° W 17:20:09 35° SSW 17:22:30 15° SSE visible
04 Dec -2.9 16:28:26 10° WNW 16:31:42 52° SSW 16:34:59 10° SE visible
04 Dec -0.5 18:07:06 10° WSW 18:07:50 11° SW 18:08:34 10° SSW visible
05 Dec -0.8 17:17:17 10° W 17:19:30 17° SW 17:21:42 10° S visible
06 Dec -1.3 16:28:15 10° W 16:31:05 25° SW 16:33:53 10° SSE visible
08 Dec -0.2 16:28:56 10° WSW 16:30:05 11° SW 16:31:14 10° SSW visible
